This is the latest recevied weather packets stored in our database for station/object HS5XHC-1. If no packets are shown the sender has not sent any weather packets the latest 10 day(s).
| Time | Temp. | Humidity | Pressure | Rain* | Wind** | Luminosity | Snow |
|---|---|---|---|---|---|---|---|
| 1777098477 | 32.22° C | 38% | 968 hPa | - | - | 0 W/m² | - |
| 1777097853 | 32.22° C | 38% | 968 hPa | - | - | 0 W/m² | - |
| 1777097229 | 32.78° C | 36% | 968 hPa | - | - | 0 W/m² | - |
| 1777096605 | 32.78° C | 36% | 968 hPa | - | - | 0 W/m² | - |
| 1777095981 | 32.22° C | 37% | 968 hPa | - | - | 0 W/m² | - |
| 1777095357 | 32.22° C | 36% | 969 hPa | - | - | 0 W/m² | - |
| 1777094733 | 32.22° C | 36% | 969 hPa | - | - | 0 W/m² | - |
| 1777094109 | 32.78° C | 36% | 969 hPa | - | - | 0 W/m² | - |
| 1777093485 | 31.67° C | 37% | 969 hPa | - | - | 0 W/m² | - |
| 1777092861 | 31.11° C | 35% | 969 hPa | - | - | 0 W/m² | - |
| 1777092238 | 31.11° C | 36% | 970 hPa | - | - | 0 W/m² | - |
| 1777091613 | 30.56° C | 36% | 970 hPa | - | - | 0 W/m² | - |
| 1777090989 | 30.56° C | 38% | 970 hPa | - | - | 0 W/m² | - |
| 1777090365 | 30° C | 40% | 970 hPa | - | - | 0 W/m² | - |
| 1777089741 | 30.56° C | 38% | 970 hPa | - | - | 0 W/m² | - |
| 1777089118 | 30.56° C | 38% | 970 hPa | - | - | 0 W/m² | - |
| 1777088493 | 30.56° C | 39% | 970 hPa | - | - | 0 W/m² | - |
| 1777087869 | 31.67° C | 38% | 969 hPa | - | - | 0 W/m² | - |
| 1777087246 | 30° C | 38% | 970 hPa | - | - | 0 W/m² | - |
| 1777086622 | 30.56° C | 39% | 969 hPa | - | - | 0 W/m² | - |
| 1777085997 | 30.56° C | 40% | 970 hPa | - | - | 0 W/m² | - |
| 1777085373 | 31.11° C | 41% | 970 hPa | - | - | 0 W/m² | - |
| 1777084724 | 31.11° C | 47% | 970 hPa | - | - | 0 W/m² | - |
| 1777084100 | 30.56° C | 48% | 970 hPa | - | - | 0 W/m² | - |
| 1777083476 | 30° C | 49% | 970 hPa | - | - | 0 W/m² | - |
* Rain since midnight (hover to see other rain measurements)
** Current wind speed in m/s (hover to see current wind gust speed)